IBE04GG LEBL-LEMD

Flight info

Callsign IBE04GG
Flight time N/A
Altitude 27000
Route SENIA Z596 TERSA
Aircraft A321/M-SDE1FGHIJ1RWY/LB1

Departure

Time 2026-05-07 17:39
Airport Josep Tarradellas Barcelona-El Prat Airport (LEBL)

Arrival

Time N/A
Airport Adolfo Suárez Madrid–Barajas Airport (LEMD)
Time Latitude Longitude Altitude Speed Heading
2026-05-07 17:04 41.29058 2.07094 24 ft 0 kts 155°
2026-05-07 17:23 41.29066 2.07090 24 ft 2 kts 162°
2026-05-07 17:23 41.29080 2.07083 24 ft 2 kts 153°
2026-05-07 17:23 41.29089 2.07077 24 ft 1 kts 155°
2026-05-07 17:23 41.29101 2.07065 24 ft 2 kts 124°
2026-05-07 17:24 41.29108 2.07047 24 ft 2 kts 99°
2026-05-07 17:24 41.29107 2.07027 24 ft 1 kts 73°
2026-05-07 17:24 41.29105 2.07019 24 ft 1 kts 62°
2026-05-07 17:24 41.29103 2.07015 24 ft 0 kts 65°
2026-05-07 17:29 41.29104 2.07016 24 ft 0 kts 65°
2026-05-07 17:29 41.29109 2.07031 24 ft 2 kts 65°
2026-05-07 17:29 41.29121 2.07065 24 ft 5 kts 65°
2026-05-07 17:29 41.29145 2.07093 24 ft 5 kts 348°
2026-05-07 17:30 41.29182 2.07092 24 ft 5 kts 34°
2026-05-07 17:30 41.29207 2.07142 24 ft 6 kts 65°
2026-05-07 17:30 41.29228 2.07205 24 ft 7 kts 65°
2026-05-07 17:30 41.29253 2.07276 24 ft 9 kts 65°
2026-05-07 17:31 41.29282 2.07360 24 ft 10 kts 65°
2026-05-07 17:31 41.29313 2.07451 24 ft 11 kts 65°
2026-05-07 17:31 41.29343 2.07551 24 ft 11 kts 73°
2026-05-07 17:31 41.29374 2.07655 24 ft 12 kts 66°
2026-05-07 17:32 41.29410 2.07763 24 ft 12 kts 66°
2026-05-07 17:32 41.29447 2.07876 24 ft 13 kts 67°
2026-05-07 17:32 41.29487 2.07989 24 ft 13 kts 64°
2026-05-07 17:32 41.29528 2.08108 24 ft 14 kts 65°
2026-05-07 17:33 41.29560 2.08229 24 ft 13 kts 101°
2026-05-07 17:33 41.29486 2.08306 24 ft 14 kts 155°
2026-05-07 17:33 41.29395 2.08362 24 ft 14 kts 155°
2026-05-07 17:33 41.29302 2.08419 24 ft 14 kts 155°
2026-05-07 17:34 41.29203 2.08445 24 ft 14 kts 192°
2026-05-07 17:34 41.29104 2.08402 24 ft 15 kts 199°
2026-05-07 17:34 41.29003 2.08356 24 ft 15 kts 198°
2026-05-07 17:34 41.28900 2.08309 24 ft 15 kts 199°
2026-05-07 17:35 41.28796 2.08261 24 ft 15 kts 199°
2026-05-07 17:35 41.28698 2.08213 24 ft 12 kts 211°
2026-05-07 17:35 41.28650 2.08113 24 ft 13 kts 245°
2026-05-07 17:35 41.28611 2.07998 24 ft 13 kts 245°
2026-05-07 17:36 41.28569 2.07881 24 ft 14 kts 245°
2026-05-07 17:36 41.28528 2.07760 24 ft 14 kts 245°
2026-05-07 17:36 41.28486 2.07635 24 ft 14 kts 246°
2026-05-07 17:36 41.28445 2.07512 24 ft 9 kts 245°
2026-05-07 17:37 41.28404 2.07462 24 ft 8 kts 204°
2026-05-07 17:37 41.28346 2.07430 24 ft 9 kts 201°
2026-05-07 17:37 41.28282 2.07401 24 ft 10 kts 189°
2026-05-07 17:37 41.28243 2.07457 24 ft 10 kts 78°
2026-05-07 17:38 41.28251 2.07490 24 ft 0 kts 68°
2026-05-07 17:38 41.28253 2.07495 24 ft 1 kts 68°
2026-05-07 17:38 41.28332 2.07734 24 ft 64 kts 66°
2026-05-07 17:38 41.28615 2.08560 24 ft 130 kts 65°
2026-05-07 17:39 41.29059 2.09866 261 ft 162 kts 66°
2026-05-07 17:39 41.29433 2.11242 868 ft 164 kts 83°
2026-05-07 17:39 41.29302 2.12751 1487 ft 169 kts 102°
2026-05-07 17:39 41.29059 2.14261 2068 ft 166 kts 101°
2026-05-07 17:40 41.28897 2.15754 2510 ft 166 kts 96°
2026-05-07 17:40 41.28786 2.17311 2842 ft 175 kts 94°
2026-05-07 17:40 41.28711 2.18980 3124 ft 187 kts 93°
2026-05-07 17:40 41.28594 2.20765 3467 ft 198 kts 96°
2026-05-07 17:41 41.28416 2.22621 3784 ft 210 kts 97°
2026-05-07 17:41 41.28208 2.24576 4274 ft 214 kts 97°
2026-05-07 17:41 41.27997 2.26524 4797 ft 217 kts 97°
2026-05-07 17:41 41.27779 2.28512 5346 ft 219 kts 97°
2026-05-07 17:42 41.27545 2.30513 5902 ft 220 kts 100°
2026-05-07 17:42 41.27021 2.32428 6407 ft 226 kts 113°
2026-05-07 17:42 41.26307 2.34413 6618 ft 247 kts 113°
2026-05-07 17:42 41.25538 2.36554 6903 ft 265 kts 114°
2026-05-07 17:43 41.24706 2.38791 7385 ft 275 kts 115°
2026-05-07 17:43 41.23855 2.41078 8051 ft 278 kts 114°
2026-05-07 17:43 41.22996 2.43405 8727 ft 281 kts 114°
2026-05-07 17:43 41.22133 2.45754 9382 ft 284 kts 114°
2026-05-07 17:44 41.21266 2.48123 10025 ft 287 kts 114°
2026-05-07 17:44 41.20386 2.50537 10479 ft 297 kts 114°
2026-05-07 17:44 41.19454 2.53093 10764 ft 313 kts 115°
2026-05-07 17:44 41.18475 2.55770 11044 ft 328 kts 115°
2026-05-07 17:45 41.17459 2.58544 11314 ft 342 kts 115°
2026-05-07 17:45 41.16391 2.61457 11628 ft 354 kts 116°
2026-05-07 17:45 41.14997 2.64167 12111 ft 359 kts 135°
2026-05-07 17:45 41.14562 2.64688 12237 ft 360 kts 140°
2026-05-07 17:46 41.13866 2.65354 12435 ft 361 kts 148°
2026-05-07 17:46 41.11540 2.66577 13003 ft 363 kts 169°
2026-05-07 17:46 41.09010 2.66660 13576 ft 363 kts 186°
2026-05-07 17:46 41.06481 2.66344 14162 ft 365 kts 186°
2026-05-07 17:47 41.03950 2.66031 14701 ft 367 kts 186°
2026-05-07 17:47 41.01386 2.65735 15236 ft 369 kts 186°
2026-05-07 17:47 40.98833 2.65407 15743 ft 371 kts 190°
2026-05-07 17:47 40.96378 2.64235 16198 ft 372 kts 212°
2026-05-07 17:48 40.94424 2.62008 16701 ft 373 kts 231°
2026-05-07 17:48 40.93151 2.59052 17190 ft 375 kts 249°
2026-05-07 17:48 40.92371 2.55721 17701 ft 376 kts 253°
2026-05-07 17:48 40.91616 2.52366 18150 ft 379 kts 252°
2026-05-07 17:49 40.90862 2.49057 18592 ft 381 kts 252°
2026-05-07 17:49 40.90080 2.45663 19046 ft 383 kts 252°
2026-05-07 17:49 40.89304 2.42326 19494 ft 384 kts 252°
2026-05-07 17:49 40.88503 2.38898 19873 ft 386 kts 251°
2026-05-07 17:50 40.87705 2.35502 19932 ft 386 kts 251°
2026-05-07 17:50 40.86937 2.32243 19934 ft 386 kts 251°
2026-05-07 17:50 40.86131 2.28824 19931 ft 385 kts 251°
2026-05-07 17:50 40.85330 2.25433 19926 ft 385 kts 251°
2026-05-07 17:51 40.84538 2.22006 19972 ft 390 kts 253°
2026-05-07 17:51 40.83982 2.18451 20396 ft 393 kts 259°
2026-05-07 17:51 40.83741 2.14866 20918 ft 394 kts 266°
2026-05-07 17:51 40.83771 2.11249 21347 ft 396 kts 269°
2026-05-07 17:52 40.83873 2.07599 21730 ft 399 kts 269°
2026-05-07 17:52 40.83985 2.03922 22126 ft 401 kts 269°
2026-05-07 17:52 40.84095 2.00263 22534 ft 402 kts 269°
2026-05-07 17:52 40.84203 1.96552 22958 ft 403 kts 269°
2026-05-07 17:53 40.84308 1.92850 23375 ft 404 kts 269°
2026-05-07 17:53 40.84410 1.89129 23756 ft 405 kts 269°
2026-05-07 17:53 40.84508 1.85425 24112 ft 407 kts 269°
2026-05-07 17:53 40.84608 1.81638 24467 ft 410 kts 268°
2026-05-07 17:54 40.84705 1.77865 24790 ft 412 kts 268°
2026-05-07 17:54 40.84801 1.74088 25125 ft 414 kts 268°
2026-05-07 17:54 40.84896 1.70285 25420 ft 417 kts 268°
2026-05-07 17:54 40.84992 1.66453 25725 ft 420 kts 268°
2026-05-07 17:55 40.85086 1.62594 26061 ft 421 kts 268°
2026-05-07 17:55 40.85180 1.58731 26394 ft 423 kts 268°
2026-05-07 17:55 40.85274 1.54804 26708 ft 424 kts 268°
2026-05-07 17:55 40.85365 1.50937 26937 ft 426 kts 268°
2026-05-07 17:56 40.85455 1.46993 26939 ft 426 kts 267°
2026-05-07 17:56 40.85545 1.43083 26944 ft 426 kts 267°
2026-05-07 17:56 40.85631 1.39191 26944 ft 427 kts 268°
2026-05-07 17:56 40.85718 1.35274 26950 ft 426 kts 267°
2026-05-07 17:57 40.85785 1.32187 26946 ft 426 kts 267°
2026-05-07 17:57 40.85851 1.29093 26951 ft 425 kts 267°
2026-05-07 17:57 40.85966 1.23708 26947 ft 424 kts 266°
2026-05-07 17:57 40.86047 1.19819 26947 ft 425 kts 266°
2026-05-07 17:58 40.86125 1.15967 26950 ft 424 kts 267°
2026-05-07 17:58 40.86203 1.12061 26950 ft 424 kts 267°
2026-05-07 17:58 40.86279 1.08259 26947 ft 424 kts 267°
2026-05-07 17:58 40.86353 1.04328 26946 ft 424 kts 267°
2026-05-07 17:59 40.86428 1.00424 26948 ft 424 kts 267°
2026-05-07 17:59 40.86500 0.96535 26950 ft 424 kts 267°
2026-05-07 17:59 40.86571 0.92690 26949 ft 425 kts 267°
2026-05-07 17:59 40.86641 0.88783 26958 ft 425 kts 267°
2026-05-07 18:00 40.86709 0.84852 26956 ft 425 kts 267°
2026-05-07 18:00 40.86774 0.80943 26965 ft 425 kts 267°
2026-05-07 18:00 40.86842 0.77051 26957 ft 424 kts 267°
2026-05-07 18:00 40.86905 0.73088 26946 ft 424 kts 266°
2026-05-07 18:01 40.86945 0.69228 26947 ft 424 kts 266°
2026-05-07 18:01 40.86973 0.65356 26943 ft 423 kts 266°
2026-05-07 18:01 40.86997 0.61459 26935 ft 423 kts 266°
2026-05-07 18:01 40.87022 0.57543 26937 ft 424 kts 266°
2026-05-07 18:02 40.87069 0.49690 26936 ft 423 kts 266°
2026-05-07 18:02 40.87089 0.45802 26932 ft 424 kts 266°
2026-05-07 18:02 40.87109 0.41894 26940 ft 424 kts 266°
2026-05-07 18:03 40.87129 0.38000 26940 ft 423 kts 266°
2026-05-07 18:03 40.87151 0.34096 26943 ft 422 kts 266°
2026-05-07 18:03 40.87169 0.30452 26942 ft 422 kts 265°
2026-05-07 18:03 40.87186 0.26553 26946 ft 422 kts 265°
2026-05-07 18:04 40.87202 0.22701 26950 ft 421 kts 265°
2026-05-07 18:04 40.87214 0.18821 26944 ft 421 kts 265°
2026-05-07 18:04 40.87225 0.14947 26951 ft 422 kts 265°
2026-05-07 18:04 40.87235 0.11070 26946 ft 422 kts 265°
2026-05-07 18:05 40.87244 0.07184 26944 ft 421 kts 265°
2026-05-07 18:05 40.87254 0.03319 26939 ft 421 kts 266°
2026-05-07 18:05 40.87265 -0.00515 26937 ft 421 kts 266°
2026-05-07 18:05 40.87273 -0.04408 26947 ft 421 kts 265°
2026-05-07 18:06 40.87278 -0.08283 26940 ft 421 kts 266°
2026-05-07 18:06 40.87282 -0.12196 26943 ft 421 kts 266°
2026-05-07 18:06 40.87284 -0.16025 26939 ft 421 kts 266°
2026-05-07 18:06 40.87284 -0.19911 26945 ft 422 kts 266°
2026-05-07 18:07 40.87284 -0.23790 26946 ft 421 kts 266°
2026-05-07 18:07 40.87283 -0.27654 26945 ft 422 kts 266°
2026-05-07 18:07 40.87279 -0.31570 26944 ft 423 kts 266°
2026-05-07 18:07 40.87275 -0.35462 26949 ft 423 kts 266°
2026-05-07 18:08 40.87270 -0.39301 26946 ft 423 kts 266°
2026-05-07 18:08 40.87262 -0.43184 26944 ft 424 kts 266°
2026-05-07 18:08 40.87254 -0.47073 26947 ft 423 kts 266°
2026-05-07 18:08 40.87244 -0.50955 26951 ft 423 kts 266°
2026-05-07 18:09 40.87234 -0.54823 26952 ft 423 kts 266°
2026-05-07 18:09 40.87221 -0.58707 26950 ft 423 kts 266°
2026-05-07 18:09 40.87206 -0.62583 26955 ft 423 kts 266°
2026-05-07 18:09 40.87189 -0.66468 26954 ft 424 kts 266°
2026-05-07 18:10 40.87172 -0.70310 26946 ft 424 kts 266°
2026-05-07 18:10 40.87155 -0.74127 26950 ft 424 kts 266°
2026-05-07 18:10 40.87136 -0.78019 26953 ft 424 kts 266°
2026-05-07 18:10 40.87117 -0.81954 26946 ft 425 kts 266°
2026-05-07 18:11 40.87096 -0.85844 26953 ft 425 kts 266°
2026-05-07 18:11 40.87074 -0.89729 26946 ft 424 kts 266°
2026-05-07 18:11 40.87049 -0.93661 26949 ft 424 kts 266°
2026-05-07 18:11 40.87024 -0.97543 26954 ft 424 kts 266°
2026-05-07 18:12 40.86996 -1.01402 26952 ft 424 kts 266°
2026-05-07 18:12 40.86966 -1.05324 26949 ft 424 kts 266°
2026-05-07 18:12 40.86936 -1.09202 26955 ft 424 kts 266°
2026-05-07 18:12 40.86902 -1.13106 26947 ft 425 kts 266°
2026-05-07 18:13 40.86868 -1.16979 26946 ft 424 kts 266°
2026-05-07 18:13 40.86832 -1.20902 26938 ft 424 kts 266°
2026-05-07 18:13 40.86776 -1.24809 26950 ft 423 kts 265°
2026-05-07 18:13 40.86575 -1.28700 26960 ft 422 kts 262°
2026-05-07 18:14 40.86205 -1.32529 26941 ft 421 kts 259°
2026-05-07 18:14 40.85668 -1.36311 26942 ft 420 kts 256°
2026-05-07 18:14 40.85048 -1.40086 26940 ft 419 kts 256°
2026-05-07 18:14 40.84415 -1.43873 26952 ft 419 kts 256°
2026-05-07 18:15 40.83781 -1.47663 26948 ft 420 kts 256°
2026-05-07 18:15 40.83155 -1.51398 26947 ft 419 kts 256°
2026-05-07 18:15 40.82525 -1.55155 26941 ft 419 kts 256°
2026-05-07 18:15 40.81892 -1.58913 26945 ft 418 kts 256°
2026-05-07 18:16 40.81253 -1.62714 26948 ft 418 kts 256°
2026-05-07 18:16 40.80638 -1.66356 26891 ft 419 kts 255°
2026-05-07 18:16 40.80015 -1.70048 26214 ft 419 kts 255°
2026-05-07 18:16 40.79393 -1.73732 25631 ft 414 kts 255°
2026-05-07 18:17 40.78762 -1.77450 25074 ft 409 kts 255°
2026-05-07 18:17 40.78144 -1.81091 24532 ft 405 kts 255°
2026-05-07 18:17 40.77528 -1.84700 23998 ft 400 kts 255°
2026-05-07 18:17 40.76927 -1.88223 23501 ft 396 kts 255°
2026-05-07 18:18 40.76321 -1.91769 22999 ft 392 kts 255°
2026-05-07 18:18 40.75722 -1.95252 22506 ft 388 kts 255°
2026-05-07 18:18 40.75126 -1.98705 22023 ft 385 kts 255°
2026-05-07 18:18 40.74535 -2.02116 21538 ft 381 kts 255°
2026-05-07 18:19 40.73953 -2.05480 21057 ft 378 kts 255°
2026-05-07 18:19 40.73370 -2.08851 20574 ft 375 kts 256°
2026-05-07 18:19 40.72962 -2.12253 20082 ft 374 kts 263°
2026-05-07 18:19 40.72894 -2.15676 19700 ft 380 kts 270°
2026-05-07 18:20 40.73165 -2.19195 19720 ft 389 kts 276°
2026-05-07 18:20 40.73579 -2.22744 19735 ft 392 kts 277°
2026-05-07 18:20 40.73872 -2.26267 19562 ft 389 kts 266°
2026-05-07 18:20 40.73229 -2.29684 19293 ft 381 kts 242°
2026-05-07 18:21 40.71735 -2.32540 19058 ft 378 kts 231°
2026-05-07 18:21 40.70100 -2.35263 18803 ft 378 kts 231°
2026-05-07 18:21 40.68496 -2.37987 18546 ft 377 kts 232°
2026-05-07 18:21 40.66917 -2.40724 18295 ft 376 kts 232°
2026-05-07 18:22 40.65327 -2.43519 18039 ft 375 kts 232°
2026-05-07 18:22 40.64304 -2.45332 17868 ft 374 kts 233°
2026-05-07 18:22 40.62237 -2.49005 17489 ft 373 kts 233°
2026-05-07 18:22 40.60721 -2.51712 17159 ft 369 kts 233°
2026-05-07 18:23 40.59221 -2.54390 16671 ft 358 kts 233°
2026-05-07 18:23 40.57756 -2.57007 16250 ft 347 kts 233°
2026-05-07 18:23 40.56374 -2.59474 15813 ft 332 kts 234°
2026-05-07 18:23 40.55020 -2.61891 15372 ft 319 kts 234°
2026-05-07 18:24 40.53731 -2.64193 15014 ft 313 kts 234°
2026-05-07 18:24 40.52455 -2.66469 14629 ft 307 kts 233°
2026-05-07 18:24 40.51393 -2.68362 14317 ft 301 kts 234°
2026-05-07 18:24 40.50006 -2.70835 13756 ft 297 kts 234°
2026-05-07 18:25 40.48772 -2.73032 13310 ft 292 kts 234°
2026-05-07 18:25 40.47592 -2.75135 12942 ft 287 kts 234°
2026-05-07 18:25 40.46423 -2.77214 12652 ft 279 kts 234°
2026-05-07 18:25 40.45277 -2.79252 12281 ft 275 kts 234°
2026-05-07 18:26 40.44150 -2.81253 11932 ft 271 kts 234°
2026-05-07 18:26 40.43047 -2.83212 11528 ft 264 kts 234°
2026-05-07 18:26 40.41969 -2.85122 11115 ft 256 kts 234°
2026-05-07 18:26 40.40918 -2.86985 10835 ft 253 kts 234°
2026-05-07 18:27 40.39869 -2.88841 10708 ft 253 kts 234°
2026-05-07 18:27 40.38821 -2.90699 10571 ft 253 kts 234°
2026-05-07 18:27 40.37766 -2.92566 10436 ft 253 kts 234°
2026-05-07 18:27 40.36718 -2.94417 10305 ft 252 kts 234°
2026-05-07 18:28 40.35669 -2.96275 10176 ft 252 kts 234°
2026-05-07 18:28 40.34622 -2.98126 10051 ft 251 kts 234°
2026-05-07 18:28 40.33584 -2.99958 9774 ft 252 kts 234°
2026-05-07 18:28 40.32534 -3.01811 9454 ft 249 kts 234°
2026-05-07 18:29 40.31507 -3.03623 9128 ft 248 kts 233°
2026-05-07 18:29 40.30485 -3.05422 8838 ft 244 kts 233°
2026-05-07 18:29 40.29481 -3.07188 8581 ft 239 kts 234°
2026-05-07 18:29 40.28497 -3.08916 8307 ft 231 kts 234°
2026-05-07 18:30 40.27562 -3.10562 8178 ft 216 kts 234°
2026-05-07 18:30 40.26704 -3.12072 8147 ft 198 kts 234°
2026-05-07 18:30 40.26098 -3.13631 8002 ft 191 kts 256°
2026-05-07 18:30 40.26021 -3.15344 7875 ft 189 kts 277°
2026-05-07 18:31 40.26237 -3.17048 7792 ft 189 kts 280°
2026-05-07 18:31 40.26483 -3.18735 7748 ft 189 kts 280°
2026-05-07 18:31 40.26725 -3.20422 7671 ft 186 kts 279°
2026-05-07 18:31 40.26952 -3.22072 7313 ft 186 kts 279°
2026-05-07 18:32 40.27177 -3.23744 7053 ft 186 kts 279°
2026-05-07 18:32 40.27398 -3.25415 6975 ft 188 kts 279°
2026-05-07 18:32 40.27621 -3.27101 6874 ft 188 kts 279°
2026-05-07 18:32 40.27843 -3.28787 6726 ft 187 kts 279°
2026-05-07 18:33 40.28062 -3.30451 6565 ft 186 kts 279°
2026-05-07 18:33 40.28298 -3.32121 6390 ft 186 kts 285°
2026-05-07 18:33 40.28931 -3.33599 6091 ft 187 kts 308°
2026-05-07 18:33 40.29772 -3.34888 5725 ft 187 kts 311°
2026-05-07 18:34 40.30633 -3.36169 5346 ft 187 kts 310°
2026-05-07 18:34 40.31258 -3.37632 5012 ft 183 kts 278°
2026-05-07 18:34 40.31289 -3.39301 5034 ft 186 kts 267°